Voltar ao catálogo

SL-14 R/B

AtivoPO
NORAD 16496·ROCKET BODY·🇷🇺 Russia

Lançado Jan 17, 1986 de Plesetsk Cosmodrome

Loading…

Próximas Passagens (próximas 24 horas)

TLE

AtualizadoSource: Space-Track

Época: Sep 14, 2026, 11:35 UTC

1 16496U 86006B   26257.48288136  .00000339  00000-0  33021-4 0  9996
2 16496  82.5233  82.0710 0076402   7.8265 352.4123 14.87012502177269

Acompanhe SL-14 R/B em tempo real com AllMySat

Download on the App Store